DECAYED

COSMOS 2251 DEB, 33919 (Decayed)

Orbit data source: Space-Track

COSMOS 2251 DEB, 33919 was space debris in LEO originally from a launch on Wed, 16 Jun 1993 UTC launched from the Plesetsk Missile And Space Complex (PKMTR). The debris from Iridium 33, an American commercial communications satellite, has been tracked extensively since its accidental collision with the defunct Russian satellite Cosmos 2251 in 2009. This event, occurring at high speed in low Earth orbit (LEO), generated thousands of pieces of space debris, significantly increasing the risk of further collisions. The Iridium 33 debris cloud has impacted space traffic management and orbital debris mitigation strategies, making it a subject of ongoing study in space situational awareness.

Not visible in the next 10 days
Identifier
33919, 1993-036DY
Orbit
Decayed
Country
Flag of CISCIS
Related business
Manufacturer
Unknown
Mission
Decayed spacecraft
Bus & Motor
Unknown
Mass
Unknown
Launch date (UTC)
1993-06-16 (33 years ago)
Launch vehicle
Unknown
Launch site
Plesetsk Missile And Space Complex (PKMTR)
Object type
Payload
Rocket body
Debris
Shape & HBR
Unknown shape, 0.1 m
Radar Cross Section
Small (<0.1 m²)

Expand to show TLE details & history
Last TLE update: 1 year ago

TLE from 1 year ago
0 COSMOS 2251 DEB
1 33919U 93036DY  25023.81071472  .21968978  19777-5  63410-2 0  9990
2 33919  73.9818 175.9141 0013844 336.5791  23.4829 16.27046416846165
Epoch: 2025-01-23T19:27Z
TLE epoch observation values (Epoch: 2025-01-23T19:27:25.751Z)
Latitude
-0.00006°
Longitude
120.6739°
Altitude
194.971 km
Speed
7.794 km/s
True Right ascension
11h 43m 39s
True Declination
0° 00' 00"
Sunlit
Object was in full shadow at epoch
Visualization orbit readout
Latitude
Unknown
Longitude
Unknown
Altitude
Unknown
Speed
Unknown
Apparent Right ascension
Unknown
Apparent Declination
Unknown
Sunlit
N/A
Visualization observer readout
Local Sidereal Time
22:32:47
Azimuth
Unknown
Elevation
Unknown
Doppler factor
Unknown
Orbital elements
Apogee altitude
207.015 km
Perigee altitude
188.807 km
Semi-major axis
6,576.048 km
Eccentricity
0.00138
Inclination
73.9818°
RAAN
175.9141°
Arg. of periapsis
336.5791°
True anomaly
23.54621°
Mean anomaly
23.4829°
Eccentric anomaly
23.51455°
Mean motion
4.07001 °/min
Orbital period
88.45 mins
BSTAR
0.006341

Documentation

Showing up to 5 results
|